Rensselaer, IN

7:57 AM CDT on May 26, 2018 (GMT -0500)
Jasper County

Weather History for KRZL - October, 2012

Change the Weather History Date:

Tuesday, October 2, 2012

  Actual Average (KIKK) Record (KIKK)
Temperature  
Mean Temperature 58 °F -  
Max Temperature 64 °F 71 °F 91 °F (2006)
Min Temperature 51 °F 43 °F 26 °F (2003)
Degree Days  
Heating Degree Days 8    
Growing Degree Days 8 (Base 50)    
Moisture  
Dew Point 49 °F    
Average Humidity 74    
Maximum Humidity 94    
Minimum Humidity 42    
Precipitation  
Precipitation 0.00 in - - ()
Sea Level Pressure  
Sea Level Pressure 29.83 in    
Wind  
Wind Speed 7 mph (NNE)    
Max Wind Speed 15 mph    
Max Gust Speed 22 mph    
Visibility 9 miles    
Events Rain    
Averages and records for this station are not official NWS values.
T = Trace of Precipitation, MM = Missing Value Source: NWS Daily Summary

Daily Weather History Graph

Daily Weather History Graph

Search for Another Location

Airport or City:

Astronomy

Oct. 02, 2012 Rise Set
Actual Time 6:46 AM CDT 6:28 PM CDT
Civil Twilight 6:19 AM CDT 6:55 PM CDT
Nautical Twilight 5:47 AM CDT 7:27 PM CDT
Astronomical Twilight 5:15 AM CDT 7:59 PM CDT
Moon 7:39 PM CDT (10/2) 9:15 AM CDT (10/2)
Length of Visible Light 12h 36m
Length of Day
11h 41m
Waning Gibbous, 94% of the Moon is Illuminated
Oct 2
Waning Gibbous
Oct 8
Last Quarter
Oct 15
New
Oct 21
First Quarter
Oct 29
Full

Hourly Weather History & Observations

Time (CDT) Temp. Dew Point Humidity Pressure Visibility Wind Dir Wind Speed Gust Speed Precip Events Conditions
12:15 AM 55.4 °F 44.6 °F 67% 29.80 in 10.0 mi North 5.8 mph - N/A   Overcast
12:35 AM 55.4 °F 44.6 °F 67% 29.79 in 10.0 mi NNE 6.9 mph - N/A   Overcast
12:55 AM 55.4 °F 44.6 °F 67% 29.79 in 10.0 mi North 6.9 mph - N/A   Overcast
1:15 AM 55.4 °F 44.6 °F 67% 29.79 in 10.0 mi North 5.8 mph - N/A   Overcast
2:15 AM 55.4 °F 44.6 °F 67% 29.79 in 10.0 mi NNE 3.5 mph - N/A   Overcast
2:35 AM 55.4 °F 44.6 °F 67% 29.78 in 10.0 mi NNE 5.8 mph - N/A   Overcast
2:55 AM 55.4 °F 44.6 °F 67% 29.78 in 10.0 mi NNE 4.6 mph - N/A   Overcast
3:15 AM 55.4 °F 44.6 °F 67% 29.78 in 10.0 mi NNE 4.6 mph - N/A   Overcast
3:35 AM 55.4 °F 44.6 °F 67% 29.79 in 10.0 mi NNE 4.6 mph - N/A   Overcast
3:55 AM 55.4 °F 44.6 °F 67% 29.80 in 10.0 mi North 4.6 mph - N/A   Overcast
4:15 AM 53.6 °F 46.4 °F 77% 29.79 in 10.0 mi NNE 4.6 mph - N/A   Scattered Clouds
4:35 AM 53.6 °F 46.4 °F 77% 29.80 in 10.0 mi North 4.6 mph - N/A   Mostly Cloudy
4:55 AM 53.6 °F 46.4 °F 77% 29.80 in 10.0 mi North 6.9 mph - N/A   Overcast
5:15 AM 53.6 °F 46.4 °F 77% 29.81 in 10.0 mi North 5.8 mph - N/A   Scattered Clouds
5:35 AM 51.8 °F 46.4 °F 82% 29.81 in 10.0 mi North 5.8 mph - N/A   Scattered Clouds
5:55 AM 51.8 °F 46.4 °F 82% 29.81 in 10.0 mi North 6.9 mph - N/A   Mostly Cloudy
6:15 AM 53.6 °F 46.4 °F 77% 29.82 in 10.0 mi North 6.9 mph - N/A   Mostly Cloudy
6:35 AM 53.6 °F 46.4 °F 77% 29.82 in 10.0 mi North 5.8 mph - N/A   Overcast
6:55 AM 53.6 °F 46.4 °F 77% 29.82 in 10.0 mi North 8.1 mph - N/A   Overcast
7:15 AM 53.6 °F 46.4 °F 77% 29.83 in 10.0 mi North 6.9 mph - N/A   Overcast
7:35 AM 53.6 °F 46.4 °F 77% 29.83 in 10.0 mi North 9.2 mph - N/A   Overcast
7:55 AM 55.4 °F 46.4 °F 72% 29.83 in 10.0 mi NNE 6.9 mph - N/A   Overcast
8:15 AM 55.4 °F 46.4 °F 72% 29.84 in 10.0 mi NNE 5.8 mph - N/A   Overcast
8:35 AM 59.0 °F 46.4 °F 63% 29.84 in 10.0 mi NNE 10.4 mph - N/A   Overcast
8:55 AM 59.0 °F 46.4 °F 63% 29.83 in 10.0 mi NNE 10.4 mph 17.3 mph N/A   Scattered Clouds
9:15 AM 59.0 °F 46.4 °F 63% 29.83 in 10.0 mi NNE 8.1 mph 19.6 mph N/A   Mostly Cloudy
9:35 AM 60.8 °F 44.6 °F 55% 29.83 in 10.0 mi NE 15.0 mph - N/A   Mostly Cloudy
9:55 AM 60.8 °F 42.8 °F 52% 29.84 in 10.0 mi NE 12.7 mph 17.3 mph N/A   Overcast
10:15 AM 62.6 °F 41.0 °F 45% 29.83 in 10.0 mi NE 12.7 mph - N/A   Overcast
10:35 AM 62.6 °F 39.2 °F 42% 29.83 in 10.0 mi NE 15.0 mph 21.9 mph N/A   Overcast
10:55 AM 62.6 °F 39.2 °F 42% 29.83 in 10.0 mi NNE 13.8 mph 19.6 mph N/A   Overcast
11:15 AM 64.4 °F 41.0 °F 42% 29.83 in 10.0 mi NE 12.7 mph - N/A   Overcast
11:35 AM 64.4 °F 41.0 °F 42% 29.83 in 10.0 mi NNE 10.4 mph 17.3 mph N/A   Overcast
11:55 AM 64.4 °F 41.0 °F 42% 29.83 in 10.0 mi NNE 11.5 mph - N/A   Overcast
12:15 PM 64.4 °F 42.8 °F 45% 29.83 in 10.0 mi NNE 11.5 mph 17.3 mph N/A   Overcast
12:35 PM 64.4 °F 44.6 °F 49% 29.83 in 10.0 mi NNE 13.8 mph 17.3 mph N/A   Overcast
12:55 PM 64.4 °F 46.4 °F 52% 29.83 in 10.0 mi NE 13.8 mph 20.7 mph N/A   Overcast
1:15 PM 60.8 °F 46.4 °F 59% 29.83 in 10.0 mi NNE 11.5 mph 17.3 mph N/A Rain Light Rain
1:35 PM 59.0 °F 51.8 °F 77% 29.82 in 7.0 mi NNE 11.5 mph - N/A   Heavy Drizzle
1:55 PM 59.0 °F 53.6 °F 82% 29.82 in 10.0 mi NNE 6.9 mph - N/A   Drizzle
2:15 PM 59.0 °F 53.6 °F 82% 29.82 in 10.0 mi NNE 9.2 mph - N/A   Drizzle
2:35 PM 60.8 °F 55.4 °F 82% 29.82 in 10.0 mi NE 6.9 mph - N/A   Overcast
3:15 PM 59.0 °F 55.4 °F 88% 29.82 in 10.0 mi ENE 6.9 mph - N/A   Overcast
3:35 PM 59.0 °F 55.4 °F 88% 29.82 in 10.0 mi NE 6.9 mph - N/A   Overcast
3:55 PM 59.0 °F 55.4 °F 88% 29.82 in 10.0 mi NE 5.8 mph - N/A   Overcast
4:15 PM 60.8 °F 55.4 °F 82% 29.83 in 10.0 mi NE 5.8 mph - N/A   Overcast
4:35 PM 60.8 °F 55.4 °F 82% 29.83 in 10.0 mi NE 6.9 mph - N/A   Overcast
4:55 PM 60.8 °F 55.4 °F 82% 29.83 in 10.0 mi NE 5.8 mph - N/A   Overcast
5:15 PM 60.8 °F 55.4 °F 82% 29.84 in 10.0 mi NE 3.5 mph - N/A   Overcast
5:35 PM 59.0 °F 55.4 °F 88% 29.85 in 5.0 mi NE 9.2 mph - N/A Rain Light Rain
5:55 PM 57.2 °F 55.4 °F 94% 29.85 in 2.5 mi NE 9.2 mph - N/A   Drizzle
6:15 PM 57.2 °F 55.4 °F 94% 29.85 in 4.0 mi NE 9.2 mph - N/A   Drizzle
6:35 PM 57.2 °F 55.4 °F 94% 29.85 in 7.0 mi NNE 8.1 mph 16.1 mph N/A   Drizzle
6:55 PM 57.2 °F 55.4 °F 94% 29.86 in 10.0 mi NNE 6.9 mph - N/A Rain Light Rain
7:15 PM 57.2 °F 55.4 °F 94% 29.86 in 7.0 mi NNE 6.9 mph - N/A Rain Rain
7:35 PM 59.0 °F 55.4 °F 88% 29.87 in 10.0 mi NNE 8.1 mph - N/A   Light Drizzle
8:15 PM 57.2 °F 55.4 °F 94% 29.88 in 5.0 mi ENE 4.6 mph - N/A Rain Rain
8:35 PM 57.2 °F 55.4 °F 94% 29.88 in 7.0 mi NNE 5.8 mph - N/A   Overcast
9:15 PM 57.2 °F 55.4 °F 94% 29.89 in 7.0 mi NNE 5.8 mph - N/A   Overcast
9:35 PM 57.2 °F 55.4 °F 94% 29.89 in 7.0 mi NNE 5.8 mph - N/A   Overcast
9:55 PM 57.2 °F 55.4 °F 94% 29.89 in 7.0 mi NNE 5.8 mph - N/A   Overcast
10:15 PM 59.0 °F 55.4 °F 88% 29.89 in 7.0 mi NE 4.6 mph - N/A   Overcast
10:35 PM 59.0 °F 55.4 °F 88% 29.88 in 7.0 mi NNE 4.6 mph - N/A   Overcast
10:55 PM 59.0 °F 55.4 °F 88% 29.89 in 7.0 mi ENE 3.5 mph - N/A   Overcast
11:15 PM 59.0 °F 55.4 °F 88% 29.89 in 7.0 mi NE 5.8 mph - N/A   Overcast
11:35 PM 59.0 °F 55.4 °F 88% 29.89 in 7.0 mi NE 4.6 mph - N/A   Overcast
11:55 PM 59.0 °F 55.4 °F 88% 29.88 in 7.0 mi NE 4.6 mph - N/A   Overcast